| time (UTC) | temp F | wind direction | speed knots | gust knots | rain 1hr in | rain 24hr in | rain mn in | humidity % | barometer mb |
| 20260506221910 | 78 | 219 | 0.0 | 1.7 | 0.00 | 0.00 | 0.00 | 67 | 1010.1 |
| 20260506221518 | 78 | 198 | 0.9 | 3.5 | 0.00 | 0.00 | 0.00 | 68 | 1010.8 |
| 20260506220919 | 78 | 321 | 0.0 | 2.6 | 0.00 | 0.00 | 0.00 | 67 | 1010.0 |
| 20260506220016 | 79 | 176 | 0.9 | 3.5 | 0.00 | 0.00 | 0.00 | 67 | 1010.8 |
| 20260506215944 | 79 | 226 | 0.0 | 2.6 | 0.00 | 0.00 | 0.00 | 68 | 1010.0 |
| 20260506215001 | 80 | 8 | 0.0 | 2.6 | 0.00 | 0.00 | 0.00 | 67 | 1010.1 |
| 20260506214518 | 79 | 360 | 0.9 | 2.6 | 0.00 | 0.00 | 0.00 | 68 | 1010.9 |
| 20260506213930 | 79 | 318 | 0.0 | 1.7 | 0.00 | 0.00 | 0.00 | 69 | 1010.2 |
| 20260506213012 | 78 | 325 | 0.9 | 2.6 | 0.00 | 0.00 | 0.00 | 70 | 1010.9 |
| 20260506211755 | 80 | 270 | 0.0 | 1.7 | 0.00 | 0.00 | 0.00 | 70 | 1009.8 |
| 20260506211511 | 79 | 303 | 0.0 | 2.6 | 0.00 | 0.00 | 0.00 | 70 | 1010.6 |
| 20260506210006 | 81 | 286 | 0.9 | 2.6 | 0.00 | 0.00 | 0.00 | 69 | 1010.7 |
| 20260506205653 | 81 | 304 | 0.0 | 0.0 | 0.00 | 0.00 | 0.00 | 72 | 1009.9 |
| 20260506204659 | 79 | 255 | 0.0 | 1.7 | 0.00 | 0.00 | 0.00 | 73 | 1009.8 |
| 20260506204525 | 79 | 296 | 0.9 | 2.6 | 0.00 | 0.00 | 0.00 | 71 | 1010.7 |
| 20260506203021 | 84 | 302 | 0.0 | 1.7 | 0.00 | 0.00 | 0.00 | 71 | 1010.6 |
| 20260506201525 | 83 | 221 | 0.9 | 3.5 | 0.00 | 0.00 | 0.00 | 69 | 1010.5 |
| 20260506201447 | 84 | 176 | 0.0 | 2.6 | 0.00 | 0.00 | 0.00 | 70 | 1009.7 |
| 20260506200512 | 83 | 118 | 0.0 | 0.9 | 0.00 | 0.00 | 0.00 | 74 | 1009.9 |
| 20260506200019 | 83 | 323 | 0.0 | 1.7 | 0.00 | 0.00 | 0.00 | 71 | 1010.8 |
| 20260506195519 | 83 | 96 | 0.0 | 0.0 | 0.00 | 0.00 | 0.00 | 73 | 1010.1 |
| 20260506194519 | 83 | 32 | 0.0 | 1.7 | 0.00 | 0.00 | 0.00 | 70 | 1010.8 |
| 20260506194447 | 83 | 25 | 0.0 | 0.0 | 0.00 | 0.00 | 0.00 | 71 | 1009.9 |
| 20260506193015 | 81 | 111 | 0.0 | 2.6 | 0.00 | 0.00 | 0.00 | 76 | 1010.6 |
| 20260506191512 | 81 | 120 | 0.9 | 1.7 | 0.00 | 0.00 | 0.00 | 76 | 1010.9 |
| 20260506191241 | 81 | 143 | 0.0 | 0.9 | 0.00 | 0.00 | 0.00 | 76 | 1010.1 |
| 20260506190220 | 81 | 150 | 0.0 | 0.9 | 0.00 | 0.00 | 0.00 | 74 | 1010.2 |
| 20260506190011 | 81 | 129 | 0.0 | 2.6 | 0.00 | 0.00 | 0.00 | 75 | 1010.9 |
| 20260506184526 | 81 | 132 | 1.7 | 3.5 | 0.00 | 0.00 | 0.00 | 72 | 1011.1 |
| 20260506184041 | 82 | 58 | 0.0 | 2.6 | 0.00 | 0.00 | 0.00 | 73 | 1010.3 |
| 20260506183025 | 82 | 50 | 0.0 | 2.6 | 0.00 | 0.00 | 0.00 | 73 | 1011.3 |
| 20260506183008 | 83 | 44 | 0.0 | 3.5 | 0.00 | 0.00 | 0.00 | 73 | 1010.5 |
| 20260506181957 | 83 | 106 | 0.0 | 3.5 | 0.00 | 0.00 | 0.00 | 71 | 1010.6 |
| 20260506181527 | 83 | 129 | 0.9 | 5.2 | 0.00 | 0.00 | 0.00 | 75 | 1011.2 |
| 20260506180949 | 84 | 169 | 0.0 | 0.9 | 0.00 | 0.00 | 0.00 | 73 | 1010.6 |
| 20260506180021 | 83 | 298 | 0.0 | 3.5 | 0.00 | 0.00 | 0.00 | 74 | 1011.5 |
| 20260506175928 | 83 | 230 | 0.0 | 0.9 | 0.00 | 0.00 | 0.00 | 75 | 1010.7 |
| 20260506174520 | 79 | 188 | 0.0 | 4.3 | 0.00 | 0.00 | 0.00 | 80 | 1011.6 |
| 20260506173739 | 79 | 148 | 0.0 | 2.6 | 0.00 | 0.00 | 0.00 | 81 | 1011.0 |
| 20260506173016 | 78 | 168 | 1.7 | 2.6 | 0.00 | 0.00 | 0.00 | 82 | 1011.7 |
| 20260506172712 | 78 | 164 | 0.0 | 1.7 | 0.00 | 0.00 | 0.00 | 84 | 1011.1 |
| 20260506171655 | 78 | 165 | 0.0 | 0.0 | 0.00 | 0.00 | 0.00 | 84 | 1011.2 |
| 20260506171515 | 77 | 155 | 0.0 | 3.5 | 0.00 | 0.00 | 0.00 | 83 | 1011.8 |
| 20260506170708 | 78 | 168 | 0.0 | 2.6 | 0.00 | 0.00 | 0.00 | 83 | 1011.2 |
| 20260506170012 | 77 | 146 | 0.0 | 3.5 | 0.00 | 0.00 | 0.00 | 84 | 1011.9 |
| 20260506165706 | 77 | 126 | 0.0 | 0.0 | 0.00 | 0.00 | 0.00 | 85 | 1011.1 |
| 20260506164701 | 77 | 125 | 0.0 | 2.6 | 0.00 | 0.00 | 0.00 | 85 | 1011.2 |
| 20260506164512 | 77 | 146 | 0.0 | 3.5 | 0.00 | 0.00 | 0.00 | 84 | 1011.9 |
| 20260506163644 | 78 | 139 | 0.0 | 0.0 | 0.00 | 0.00 | 0.00 | 84 | 1011.2 |
| 20260506163009 | 77 | 69 | 0.0 | 1.7 | 0.00 | 0.00 | 0.00 | 84 | 1011.9 |
| 20260506162613 | 78 | 141 | 0.0 | 0.9 | 0.00 | 0.00 | 0.00 | 85 | 1011.2 |
| 20260506161637 | 77 | 136 | 0.0 | 0.9 | 0.00 | 0.00 | 0.00 | 86 | 1011.2 |
| 20260506161507 | 77 | 120 | 0.9 | 2.6 | 0.00 | 0.00 | 0.00 | 86 | 1011.9 |
| 20260506160659 | 77 | 143 | 0.0 | 1.7 | 0.00 | 0.00 | 0.00 | 87 | 1011.1 |
| 20260506160023 | 76 | 139 | 0.9 | 2.6 | 0.00 | 0.00 | 0.00 | 87 | 1011.7 |
| 20260506155642 | 77 | 145 | 0.0 | 0.9 | 0.00 | 0.00 | 0.00 | 87 | 1011.0 |
| 20260506154706 | 77 | 152 | 0.0 | 0.9 | 0.00 | 0.00 | 0.00 | 88 | 1011.0 |
| 20260506154526 | 76 | 331 | 0.0 | 1.7 | 0.00 | 0.00 | 0.00 | 88 | 1011.6 |
| 20260506153032 | 75 | 123 | 0.0 | 1.7 | 0.00 | 0.00 | 0.00 | 92 | 1011.3 |
| 20260506152540 | 75 | 131 | 0.0 | 0.9 | 0.00 | 0.00 | 0.00 | 92 | 1010.6 |
| 20260506151557 | 75 | 155 | 0.0 | 0.0 | 0.00 | 0.00 | 0.00 | 92 | 1010.5 |
| 20260506151520 | 74 | 156 | 0.0 | 1.7 | 0.00 | 0.00 | 0.00 | 91 | 1011.2 |
| 20260506150552 | 74 | 120 | 0.0 | 0.0 | 0.00 | 0.00 | 0.00 | 92 | 1010.3 |
| 20260506150015 | 74 | 163 | 0.0 | 1.7 | 0.00 | 0.00 | 0.00 | 91 | 1011.0 |
| 20260506144532 | 74 | 271 | 0.0 | 0.0 | 0.00 | 0.00 | 0.00 | 90 | 1010.9 |
| 20260506144408 | 75 | 274 | 0.0 | 0.0 | 0.00 | 0.00 | 0.00 | 91 | 1010.3 |
| 20260506143412 | 75 | 274 | 0.0 | 0.0 | 0.00 | 0.00 | 0.00 | 91 | 1010.3 |
| 20260506143010 | 74 | 271 | 0.0 | 1.7 | 0.00 | 0.00 | 0.00 | 90 | 1010.9 |
| 20260506141507 | 74 | 157 | 0.0 | 1.7 | 0.00 | 0.00 | 0.00 | 91 | 1010.7 |
| 20260506141312 | 74 | 156 | 0.0 | 0.9 | 0.00 | 0.00 | 0.00 | 91 | 1009.8 |
| 20260506140253 | 74 | 141 | 0.0 | 0.9 | 0.00 | 0.00 | 0.00 | 91 | 1009.7 |
| 20260506140038 | 74 | 149 | 0.0 | 1.7 | 0.00 | 0.00 | 0.00 | 91 | 1010.4 |
| 20260506135223 | 74 | 134 | 0.0 | 0.9 | 0.00 | 0.00 | 0.00 | 91 | 1009.4 |
| 20260506134533 | 73 | 138 | 0.0 | 1.7 | 0.00 | 0.00 | 0.00 | 91 | 1009.8 |
| 20260506134220 | 74 | 129 | 0.0 | 0.0 | 0.00 | 0.00 | 0.00 | 91 | 1009.1 |
| 20260506133156 | 74 | 139 | 0.0 | 2.6 | 0.00 | 0.00 | 0.00 | 92 | 1008.9 |
| 20260506133025 | 73 | 153 | 0.9 | 3.5 | 0.00 | 0.00 | 0.00 | 91 | 1009.6 |
| 20260506132130 | 74 | 129 | 0.0 | 0.9 | 0.00 | 0.00 | 0.00 | 92 | 1008.9 |
| 20260506131532 | 73 | 169 | 0.0 | 1.7 | 0.00 | 0.00 | 0.00 | 91 | 1009.6 |
| 20260506130045 | 74 | 173 | 0.0 | 2.6 | 0.00 | 0.00 | 0.00 | 92 | 1008.5 |
| 20260506130029 | 73 | 151 | 0.9 | 3.5 | 0.00 | 0.00 | 0.00 | 91 | 1009.3 |
| 20260506125035 | 74 | 210 | 0.0 | 0.9 | 0.00 | 0.00 | 0.00 | 92 | 1008.5 |
| 20260506124519 | 73 | 112 | 0.0 | 1.7 | 0.00 | 0.00 | 0.00 | 91 | 1009.3 |
| 20260506124038 | 74 | 108 | 0.0 | 0.0 | 0.00 | 0.00 | 0.00 | 92 | 1008.6 |
| 20260506123045 | 74 | 127 | 0.0 | 0.9 | 0.00 | 0.00 | 0.00 | 91 | 1008.6 |
| 20260506123015 | 73 | 111 | 0.0 | 1.7 | 0.00 | 0.00 | 0.00 | 90 | 1009.4 |
| 20260506121514 | 74 | 96 | 0.0 | 1.7 | 0.00 | 0.00 | 0.00 | 90 | 1009.4 |
| 20260506120953 | 74 | 141 | 0.0 | 0.9 | 0.00 | 0.00 | 0.00 | 90 | 1008.6 |
| 20260506120031 | 74 | 98 | 0.0 | 1.7 | 0.00 | 0.00 | 0.00 | 89 | 1009.3 |
| 20260506120003 | 74 | 95 | 0.0 | 0.0 | 0.00 | 0.00 | 0.00 | 90 | 1008.6 |
| 20260506114932 | 74 | 179 | 0.0 | 0.9 | 0.00 | 0.00 | 0.00 | 90 | 1008.5 |
| 20260506114526 | 74 | 129 | 0.0 | 1.7 | 0.00 | 0.00 | 0.00 | 89 | 1009.3 |
| 20260506113921 | 74 | 120 | 0.0 | 0.9 | 0.00 | 0.00 | 0.00 | 90 | 1008.5 |
| 20260506113033 | 74 | 147 | 0.0 | 1.7 | 0.00 | 0.00 | 0.00 | 89 | 1009.2 |
| 20260506112918 | 74 | 124 | 0.0 | 0.0 | 0.00 | 0.00 | 0.00 | 89 | 1008.5 |
| 20260506111854 | 74 | 135 | 0.0 | 0.9 | 0.00 | 0.00 | 0.00 | 89 | 1008.5 |
| 20260506111524 | 74 | 189 | 0.0 | 1.7 | 0.00 | 0.00 | 0.00 | 89 | 1009.2 |
| 20260506110854 | 74 | 247 | 0.0 | 0.9 | 0.00 | 0.00 | 0.00 | 89 | 1008.3 |
| 20260506110032 | 74 | 126 | 0.0 | 1.7 | 0.00 | 0.00 | 0.00 | 89 | 1009.1 |
| 20260506104708 | 74 | 129 | 0.0 | 2.6 | 0.00 | 0.00 | 0.00 | 89 | 1008.3 |
| 20260506104526 | 74 | 124 | 0.0 | 2.6 | 0.00 | 0.00 | 0.00 | 89 | 1008.9 |
| 20260506103635 | 74 | 120 | 0.0 | 2.6 | 0.00 | 0.00 | 0.00 | 89 | 1008.3 |
| 20260506103023 | 74 | 102 | 0.0 | 2.6 | 0.00 | 0.00 | 0.00 | 89 | 1008.9 |
| 20260506102607 | 74 | 110 | 0.0 | 1.7 | 0.00 | 0.00 | 0.00 | 89 | 1008.3 |
| 20260506101535 | 74 | 192 | 0.0 | 0.9 | 0.00 | 0.00 | 0.00 | 89 | 1008.4 |
| 20260506101516 | 74 | 167 | 0.0 | 0.9 | 0.00 | 0.00 | 0.00 | 88 | 1009.1 |
| 20260506100506 | 74 | 176 | 0.0 | 0.9 | 0.00 | 0.00 | 0.00 | 89 | 1008.3 |
| 20260506100026 | 74 | 117 | 0.0 | 5.2 | 0.00 | 0.00 | 0.00 | 89 | 1009.0 |
| 20260506095503 | 74 | 165 | 0.0 | 2.6 | 0.00 | 0.00 | 0.00 | 89 | 1008.3 |
| 20260506094527 | 74 | 200 | 0.0 | 4.3 | 0.00 | 0.00 | 0.00 | 89 | 1008.9 |
| 20260506094439 | 74 | 162 | 0.0 | 0.9 | 0.00 | 0.00 | 0.00 | 89 | 1008.2 |
| 20260506093501 | 74 | 162 | 0.0 | 3.5 | 0.00 | 0.00 | 0.00 | 89 | 1008.1 |
| 20260506093032 | 74 | 108 | 0.9 | 3.5 | 0.00 | 0.00 | 0.00 | 89 | 1008.8 |
| 20260506092521 | 74 | 117 | 0.0 | 2.6 | 0.00 | 0.00 | 0.00 | 89 | 1008.1 |
| 20260506091536 | 74 | 190 | 0.0 | 2.6 | 0.00 | 0.00 | 0.00 | 89 | 1008.0 |
| 20260506091526 | 74 | 193 | 0.9 | 3.5 | 0.00 | 0.00 | 0.00 | 88 | 1008.7 |
| 20260506090518 | 75 | 114 | 0.0 | 8.7 | 0.00 | 0.00 | 0.00 | 88 | 1008.0 |
| 20260506090029 | 74 | 109 | 1.7 | 7.0 | 0.00 | 0.00 | 0.00 | 88 | 1008.6 |
| 20260506085504 | 75 | 134 | 0.9 | 8.7 | 0.00 | 0.00 | 0.00 | 88 | 1008.0 |
| 20260506084528 | 74 | 78 | 2.6 | 7.0 | 0.00 | 0.00 | 0.00 | 88 | 1008.6 |
| 20260506084443 | 75 | 126 | 0.9 | 5.2 | 0.00 | 0.00 | 0.00 | 89 | 1007.9 |
| 20260506083508 | 74 | 138 | 0.0 | 5.2 | 0.00 | 0.00 | 0.00 | 89 | 1008.1 |
| 20260506083029 | 74 | 211 | 0.9 | 7.0 | 0.00 | 0.00 | 0.00 | 88 | 1008.8 |
| 20260506082525 | 74 | 117 | 0.9 | 5.2 | 0.00 | 0.00 | 0.00 | 89 | 1008.1 |
| 20260506081521 | 74 | 132 | 0.9 | 6.1 | 0.00 | 0.00 | 0.00 | 88 | 1008.9 |
| 20260506081453 | 75 | 54 | 0.9 | 4.3 | 0.00 | 0.00 | 0.00 | 89 | 1008.1 |
| 20260506080427 | 75 | 77 | 0.0 | 4.3 | 0.00 | 0.00 | 0.00 | 89 | 1008.1 |
| 20260506073352 | 75 | 189 | 0.9 | 6.1 | 0.00 | 0.00 | 0.00 | 89 | 1008.3 |
| 20260506073012 | 74 | 134 | 2.6 | 7.0 | 0.00 | 0.00 | 0.00 | 88 | 1009.0 |
| 20260506072325 | 75 | 192 | 0.0 | 5.2 | 0.00 | 0.00 | 0.00 | 89 | 1008.4 |
| 20260506071512 | 75 | 142 | 0.9 | 7.0 | 0.00 | 0.00 | 0.00 | 88 | 1009.3 |
| 20260506071332 | 75 | 85 | 0.9 | 5.2 | 0.00 | 0.00 | 0.00 | 89 | 1008.6 |
| 20260506062157 | 75 | 103 | 0.9 | 4.3 | 0.00 | 0.00 | 0.00 | 88 | 1008.8 |
| 20260506061522 | 75 | 130 | 1.7 | 7.0 | 0.00 | 0.00 | 0.00 | 87 | 1009.5 |
| 20260506061141 | 75 | 172 | 0.9 | 5.2 | 0.00 | 0.00 | 0.00 | 88 | 1008.8 |
| 20260506060157 | 75 | 166 | 0.9 | 5.2 | 0.00 | 0.00 | 0.00 | 88 | 1008.8 |
| 20260506050901 | 76 | 101 | 0.9 | 4.3 | 0.00 | 0.00 | 0.00 | 87 | 1008.8 |
| 20260506044823 | 76 | 152 | 0.9 | 7.8 | 0.00 | 0.00 | 0.00 | 87 | 1008.5 |
| 20260506044509 | 76 | 187 | 0.9 | 7.0 | 0.00 | 0.00 | 0.00 | 87 | 1009.2 |
| 20260506043758 | 76 | 107 | 0.9 | 7.8 | 0.00 | 0.00 | 0.00 | 87 | 1008.4 |
| 20260506043023 | 76 | 144 | 2.6 | 9.6 | 0.00 | 0.00 | 0.00 | 87 | 1009.3 |
| 20260506042812 | 76 | 65 | 0.0 | 7.0 | 0.00 | 0.00 | 0.00 | 87 | 1008.5 |
| 20260506041821 | 76 | 107 | 0.9 | 7.0 | 0.00 | 0.00 | 0.00 | 87 | 1008.5 |
| 20260506041526 | 76 | 74 | 1.7 | 6.1 | 0.00 | 0.00 | 0.00 | 86 | 1009.1 |
| 20260506040021 | 76 | 112 | 2.6 | 6.1 | 0.00 | 0.00 | 0.00 | 86 | 1009.0 |
| 20260506034550 | 77 | 126 | 0.0 | 3.5 | 0.00 | 0.00 | 0.00 | 86 | 1008.2 |
| 20260506034519 | 76 | 105 | 0.9 | 5.2 | 0.00 | 0.00 | 0.00 | 85 | 1008.9 |
| 20260506033547 | 77 | 145 | 0.9 | 4.3 | 0.00 | 0.00 | 0.00 | 86 | 1008.1 |
| 20260506033023 | 77 | 132 | 1.7 | 6.1 | 0.00 | 0.00 | 0.00 | 85 | 1008.9 |
| 20260506031525 | 77 | 144 | 0.9 | 7.0 | 0.00 | 0.00 | 0.00 | 84 | 1008.4 |
| 20260506031349 | 78 | 112 | 0.9 | 5.2 | 0.00 | 0.00 | 0.00 | 84 | 1007.6 |
| 20260506030335 | 78 | 135 | 0.0 | 1.7 | 0.00 | 0.00 | 0.00 | 84 | 1007.5 |
| 20260506030011 | 78 | 105 | 0.0 | 6.1 | 0.00 | 0.00 | 0.00 | 83 | 1008.4 |
| 20260506024509 | 78 | 136 | 0.9 | 4.3 | 0.00 | 0.00 | 0.00 | 82 | 1008.1 |
| 20260506023046 | 79 | 122 | 0.0 | 4.3 | 0.00 | 0.00 | 0.00 | 81 | 1007.0 |
| 20260506023026 | 79 | 129 | 1.7 | 6.1 | 0.00 | 0.00 | 0.00 | 80 | 1007.8 |
| 20260506022025 | 79 | 148 | 0.0 | 3.5 | 0.00 | 0.00 | 0.00 | 80 | 1006.9 |
| 20260506021523 | 79 | 158 | 1.7 | 4.3 | 0.00 | 0.00 | 0.00 | 79 | 1007.6 |
| 20260506020957 | 80 | 170 | 0.9 | 3.5 | 0.00 | 0.00 | 0.00 | 79 | 1006.7 |
| 20260506020027 | 79 | 126 | 0.9 | 4.3 | 0.00 | 0.00 | 0.00 | 79 | 1007.6 |
| 20260506020004 | 79 | 124 | 0.0 | 2.6 | 0.00 | 0.00 | 0.00 | 79 | 1006.7 |
| 20260506015024 | 80 | 160 | 0.0 | 3.5 | 0.00 | 0.00 | 0.00 | 79 | 1006.5 |
| 20260506014523 | 79 | 123 | 1.7 | 5.2 | 0.00 | 0.00 | 0.00 | 79 | 1007.2 |
| 20260506013952 | 80 | 108 | 0.0 | 3.5 | 0.00 | 0.00 | 0.00 | 79 | 1006.3 |
| 20260506013022 | 79 | 111 | 0.9 | 2.6 | 0.00 | 0.00 | 0.00 | 78 | 1007.0 |
| 20260506012932 | 80 | 123 | 0.0 | 1.7 | 0.00 | 0.00 | 0.00 | 79 | 1006.1 |
| 20260506011924 | 80 | 170 | 0.0 | 0.9 | 0.00 | 0.00 | 0.00 | 79 | 1006.2 |
| 20260506011519 | 80 | 139 | 0.0 | 1.7 | 0.00 | 0.00 | 0.00 | 78 | 1007.2 |
| 20260506010912 | 81 | 141 | 0.0 | 0.0 | 0.00 | 0.00 | 0.00 | 78 | 1006.2 |
| 20260506010043 | 80 | 122 | 0.0 | 1.7 | 0.00 | 0.00 | 0.00 | 77 | 1007.0 |
| 20260506005839 | 81 | 124 | 0.0 | 0.0 | 0.00 | 0.00 | 0.00 | 78 | 1006.1 |
| 20260506004511 | 80 | 105 | 0.0 | 0.0 | 0.00 | 0.00 | 0.00 | 79 | 1006.9 |
| 20260506003720 | 80 | 101 | 0.0 | 0.0 | 0.00 | 0.00 | 0.00 | 80 | 1005.9 |
| 20260506003008 | 81 | 105 | 0.0 | 1.7 | 0.00 | 0.00 | 0.00 | 76 | 1006.8 |
| 20260506002705 | 82 | 101 | 0.0 | 0.0 | 0.00 | 0.00 | 0.00 | 74 | 1005.9 |
| 20260506001705 | 83 | 121 | 0.0 | 0.0 | 0.00 | 0.00 | 0.00 | 73 | 1005.9 |
| 20260506001508 | 82 | 123 | 0.0 | 1.7 | 0.00 | 0.00 | 0.00 | 72 | 1006.8 |
| 20260506000657 | 83 | 154 | 0.0 | 0.9 | 0.00 | 0.00 | 0.00 | 72 | 1005.8 |
| 20260506000009 | 83 | 133 | 0.0 | 2.6 | 0.00 | 0.00 | 0.00 | 71 | 1006.7 |
| 20260505235656 | 84 | 131 | 0.0 | 1.7 | 0.00 | 0.00 | 0.00 | 70 | 1005.9 |
| 20260505234720 | 84 | 122 | 0.0 | 0.9 | 0.00 | 0.00 | 0.00 | 70 | 1005.7 |
| 20260505234526 | 83 | 152 | 0.9 | 6.1 | 0.00 | 0.00 | 0.00 | 68 | 1006.6 |
| 20260505233712 | 84 | 127 | 0.0 | 4.3 | 0.00 | 0.00 | 0.00 | 70 | 1005.7 |
| 20260505233022 | 84 | 136 | 0.9 | 3.5 | 0.00 | 0.00 | 0.00 | 69 | 1006.6 |
| 20260505232732 | 84 | 96 | 0.0 | 0.0 | 0.00 | 0.00 | 0.00 | 70 | 1005.7 |
| 20260505231755 | 84 | 187 | 0.0 | 3.5 | 0.00 | 0.00 | 0.00 | 69 | 1005.7 |
| 20260505231520 | 83 | 135 | 0.9 | 5.2 | 0.00 | 0.00 | 0.00 | 68 | 1006.6 |
| 20260505230734 | 84 | 102 | 0.0 | 3.5 | 0.00 | 0.00 | 0.00 | 69 | 1005.7 |
| 20260505230025 | 84 | 88 | 1.7 | 4.3 | 0.00 | 0.00 | 0.00 | 68 | 1006.4 |
| 20260505225722 | 84 | 84 | 0.0 | 7.0 | 0.00 | 0.00 | 0.00 | 69 | 1005.6 |
| 20260505224728 | 85 | 199 | 0.9 | 7.0 | 0.00 | 0.00 | 0.00 | 67 | 1005.6 |
| 20260505224516 | 84 | 96 | 0.9 | 8.7 | 0.00 | 0.00 | 0.00 | 67 | 1006.4 |
| 20260505223744 | 84 | 172 | 0.0 | 4.3 | 0.00 | 0.00 | 0.00 | 67 | 1005.6 |
| 20260505223011 | 85 | 289 | 0.0 | 6.1 | 0.00 | 0.00 | 0.00 | 67 | 1006.6 |